Aeroporto :
LOGIN :

Iscrizione | Disclaimer

   EN    FR    IT 

 










Sommario :    VFR   VFR Marginale   IFR   IFR Intensivo   IFR Molto Intensivo
Visibilità : 
Base nubi : 
>= 8 km
>= 3000ft
5 / 8 km
1000 / 3000 ft
1500m / 5 km
500 / 1000 ft
800 / 1500m
200 / 500 ft
< 800m
< 200 ft
Simboli :   Temporali  Nebbia  Neve Forte  Precipitazioni Forti  Vento > 20 kt
SIGMETs :   Varie  Temporali  Ghiacco  Turbolenza  Onda orograficha  Ceneri Vulcaniche







- Altitudine del aeroporto : 112 ft
- Codice IATA : SVQ


LEZL - Sevilla San Pablo

ULTIMO METAR :
  • 181530Z 26003KT 210V300 CAVOK 15/03 Q1019 NOSIG

METARs OBSOLETI :
  • 181500Z 26006KT 230V320 CAVOK 16/03 Q1020 NOSIG
  • 181430Z VRB02KT CAVOK 15/03 Q1020 NOSIG
  • 181400Z 27001KT CAVOK 15/04 Q1020 NOSIG
  • 181330Z VRB02KT CAVOK 15/04 Q1020 NOSIG
  • 181300Z VRB01KT CAVOK 14/03 Q1020 NOSIG

TAF TAF LEZL
Valido dal 18 a 15 ore il 19 a 15 ore UTC


181400Z 1815/1915 22004KT 9999 FEW045 TX15/1815Z TN07/1906Z
PROB30
TEMPO 1901/1909 4000 -RA BR BKN014
Nessun NOTAM noto per questo aeroporto.



MetMap, La meteo Aeronautica in un colpo d'occhio ! - Copyright ORBIFLY Dicembre 2007 - Disclaimer

ORBIFLY MET'MAP TEAM :

Programmazione e sviluppo : Alexandra Zaïnal
Concezione e sviluppo : Baudouin d'Aumeries
Co-Programmazione e sviluppo : Marc-Olivier Méhu
Supporto tecnico e logistico : Manuel Goepfert
Aiuto per la traduzione : Arnaldo La Scala

Contatto : metmap@orbifly.com




FONTI E CREDITI :

   NOAA